This is the latest recevied weather packets stored in our database for station/object OE-11344. If no packets are shown the sender has not sent any weather packets the latest 10 day(s).
| Time | Temp. | Humidity | Pressure | Rain* | Wind** | Luminosity | Snow |
|---|---|---|---|---|---|---|---|
| 1787994685 | 11.11° C | 87% | 854.2 hPa | 0 mm | - | 193 W/m² | - |
| 1787994312 | 11.11° C | 89% | 854.2 hPa | 0 mm | - | 181 W/m² | - |
| 1787993712 | 10.56° C | 86% | 854.2 hPa | 0 mm | - | 151 W/m² | - |
| 1787992884 | 10.56° C | 86% | 854.2 hPa | 0 mm | - | 133 W/m² | - |
| 1787992511 | 10.56° C | 77% | 854.1 hPa | 0 mm | - | 121 W/m² | - |
| 1787991911 | 10° C | 90% | 854.2 hPa | 0 mm | - | 109 W/m² | - |
| 1787991085 | 10.56° C | 90% | 854.3 hPa | 0 mm | - | 103 W/m² | - |
| 1787990711 | 10° C | 88% | 854.4 hPa | 0 mm | - | 85 W/m² | - |
| 1787990112 | 10° C | 87% | 854.2 hPa | 0 mm | - | 66 W/m² | - |
| 1787989284 | 10° C | 87% | 854.3 hPa | 0 mm | - | 145 W/m² | - |
| 1787988912 | 10° C | 92% | 854.3 hPa | 0 mm | - | 133 W/m² | - |
| 1787988311 | 10° C | 92% | 854.3 hPa | 0 mm | - | 109 W/m² | - |
| 1787987485 | 9.44° C | 94% | 854.2 hPa | 0 mm | - | 103 W/m² | - |
| 1787987112 | 10° C | 95% | 854.1 hPa | 0 mm | - | 66 W/m² | - |
| 1787986512 | 10° C | 93% | 853.9 hPa | 0 mm | - | 60 W/m² | - |
| 1787985685 | 10° C | 88% | 853.8 hPa | 0 mm | - | 103 W/m² | - |
| 1787985311 | 10° C | 92% | 853.7 hPa | 0 mm | - | 91 W/m² | - |
| 1787984712 | 10° C | 93% | 853.7 hPa | 0 mm | - | 127 W/m² | - |
| 1787983885 | 9.44° C | 92% | 853.7 hPa | 0 mm | - | 127 W/m² | - |
| 1787982912 | 8.89° C | 94% | 853.8 hPa | 0 mm | - | 91 W/m² | - |
| 1787982084 | 8.89° C | 95% | 853.7 hPa | 0 mm | - | 72 W/m² | - |
| 1787981712 | 8.89° C | 95% | 853.7 hPa | 0 mm | - | 54 W/m² | - |
| 1787981111 | 8.33° C | 95% | 853.7 hPa | 0 mm | - | 54 W/m² | - |
| 1787980284 | 8.33° C | 94% | 853.6 hPa | 0 mm | - | 30 W/m² | - |
| 1787979911 | 8.33° C | 94% | 853.5 hPa | 0 mm | - | 18 W/m² | - |
* Rain latest hour (hover to see other rain measurements)
** Current wind speed in m/s (hover to see current wind gust speed)